When you browse on this site, cookies collect data to enhance your experience and personalize the content and advertising you see.
Visit our Privacy Policy to learn more. By continuing to use the site, you agree to this use of cookies and data.
  • en Belgique
  • Liste des pays
  • À 7 jours
  • Température de l'eau
  • Carte satellitaire
  • Carte météo
  • Widgets météo
  • user-avatar
    Se connecter

    Météo par heure à Bouillon

    Ce jour, 23 Février, Samedi

    Heure Température Précipitation Vent Pression Humidité
    00:00 +4°C° 0 mm 3 m/s 739 mmHg 91%
    01:00 +4°C° 0 mm 3 m/s 739 mmHg 92%
    02:00 +3°C° 0 mm 3 m/s 738 mmHg 92%
    03:00 +3°C° 0 mm 3 m/s 738 mmHg 92%
    04:00 +3°C° 0 mm 3 m/s 738 mmHg 92%
    05:00 +2°C° 0 mm 3 m/s 738 mmHg 92%
    06:00 +2°C° 0 mm 3 m/s 738 mmHg 92%
    07:00 +3°C° 0 mm 3 m/s 738 mmHg 85%
    08:00 +4°C° 0 mm 4 m/s 739 mmHg 79%
    09:00 +5°C° 0 mm 4 m/s 739 mmHg 72%
    10:00 +6°C° 0 mm 4 m/s 739 mmHg 64%
    11:00 +8°C° 0 mm 4 m/s 739 mmHg 55%
    12:00 +10°C° 0 mm 4 m/s 739 mmHg 46%
    13:00 +10°C° 0 mm 4 m/s 739 mmHg 46%
    14:00 +10°C° 0 mm 4 m/s 738 mmHg 46%
    15:00 +10°C° 0 mm 4 m/s 738 mmHg 47%
    16:00 +7°C° 0 mm 4 m/s 738 mmHg 50%
    17:00 +6°C° 0 mm 4 m/s 738 mmHg 52%
    18:00 +4°C° 0 mm 4 m/s 738 mmHg 55%
    19:00 +3°C° 0 mm 4 m/s 738 mmHg 53%
    20:00 +3°C° 0 mm 4 m/s 738 mmHg 51%
    21:00 +3°C° 0 mm 4 m/s 739 mmHg 48%
    22:00 +1°C° 0 mm 4 m/s 739 mmHg 47%
    23:00 +1°C° 0 mm 4 m/s 739 mmHg 46%

    Demain, 24 Février, Dimanche

    Heure Température Précipitation Vent Pression Humidité
    00:00 +1°C° 0 mm 4 m/s 739 mmHg 45%
    01:00 +1°C° 0 mm 4 m/s 739 mmHg 44%
    02:00 0°C° 0 mm 4 m/s 739 mmHg 42%
    03:00 +1°C° 0 mm 3 m/s 738 mmHg 41%
    04:00 +1°C° 0 mm 3 m/s 739 mmHg 41%
    05:00 +1°C° 0 mm 3 m/s 739 mmHg 41%
    06:00 +1°C° 0 mm 3 m/s 739 mmHg 40%
    07:00 +2°C° 0 mm 3 m/s 739 mmHg 39%
    08:00 +3°C° 0 mm 4 m/s 740 mmHg 38%
    09:00 +5°C° 0 mm 4 m/s 740 mmHg 36%
    10:00 +6°C° 0 mm 4 m/s 740 mmHg 37%
    11:00 +9°C° 0 mm 3 m/s 740 mmHg 37%
    12:00 +10°C° 0 mm 3 m/s 740 mmHg 37%
    13:00 +10°C° 0 mm 3 m/s 740 mmHg 39%
    14:00 +11°C° 0 mm 3 m/s 740 mmHg 41%
    15:00 +11°C° 0 mm 3 m/s 740 mmHg 43%
    16:00 +9°C° 0 mm 3 m/s 740 mmHg 48%
    17:00 +7°C° 0 mm 3 m/s 740 mmHg 53%
    18:00 +6°C° 0 mm 2 m/s 739 mmHg 58%
    19:00 +4°C° 0 mm 3 m/s 740 mmHg 56%
    20:00 +4°C° 0 mm 3 m/s 740 mmHg 55%
    21:00 +3°C° 0 mm 3 m/s 740 mmHg 53%
    22:00 +3°C° 0 mm 3 m/s 740 mmHg 52%
    23:00 +3°C° 0 mm 3 m/s 740 mmHg 52%

    Après-demain, 25 Février, Lundi

    Heure Température Précipitation Vent Pression Humidité
    00:00 +3°C° 0 mm 3 m/s 740 mmHg 51%
    01:00 +3°C° 0 mm 3 m/s 740 mmHg 51%
    02:00 +3°C° 0 mm 3 m/s 740 mmHg 51%
    03:00 +3°C° 0 mm 3 m/s 740 mmHg 50%
    04:00 +3°C° 0 mm 3 m/s 740 mmHg 51%
    05:00 +3°C° 0 mm 3 m/s 740 mmHg 52%
    06:00 +3°C° 0 mm 3 m/s 740 mmHg 52%
    07:00 +4°C° 0 mm 3 m/s 740 mmHg 52%
    08:00 +7°C° 0 mm 3 m/s 741 mmHg 52%
    09:00 +8°C° 0 mm 3 m/s 741 mmHg 51%
    10:00 +10°C° 0 mm 3 m/s 741 mmHg 51%
    11:00 +12°C° 0 mm 4 m/s 741 mmHg 50%
    12:00 +13°C° 0 mm 4 m/s 741 mmHg 49%
    13:00 +13°C° 0 mm 3 m/s 740 mmHg 51%
    14:00 +14°C° 0 mm 3 m/s 740 mmHg 53%
    15:00 +14°C° 0 mm 3 m/s 740 mmHg 55%
    16:00 +12°C° 0 mm 3 m/s 740 mmHg 61%
    17:00 +10°C° 0 mm 3 m/s 739 mmHg 68%
    18:00 +8°C° 0 mm 2 m/s 739 mmHg 75%
    19:00 +7°C° 0 mm 2 m/s 739 mmHg 74%
    20:00 +7°C° 0 mm 3 m/s 739 mmHg 73%
    21:00 +5°C° 0 mm 3 m/s 739 mmHg 72%
    22:00 +5°C° 0 mm 3 m/s 739 mmHg 70%
    23:00 +5°C° 0 mm 3 m/s 739 mmHg 68%

    26 Février, Mardi

    Heure Température Précipitation Vent Pression Humidité
    00:00 +5°C° 0 mm 3 m/s 739 mmHg 66%
    01:00 +5°C° 0 mm 3 m/s 739 mmHg 67%
    02:00 +5°C° 0 mm 3 m/s 738 mmHg 67%
    03:00 +4°C° 0 mm 3 m/s 738 mmHg 67%
    04:00 +4°C° 0 mm 3 m/s 738 mmHg 69%
    05:00 +5°C° 0 mm 2 m/s 738 mmHg 70%
    06:00 +4°C° 0 mm 2 m/s 738 mmHg 71%
    07:00 +5°C° 0 mm 3 m/s 738 mmHg 67%
    08:00 +8°C° 0 mm 3 m/s 739 mmHg 62%
    09:00 +9°C° 0 mm 3 m/s 739 mmHg 57%
    10:00 +11°C° 0 mm 3 m/s 739 mmHg 54%
    11:00 +12°C° 0 mm 3 m/s 739 mmHg 51%
    12:00 +14°C° 0 mm 3 m/s 739 mmHg 48%
    13:00 +14°C° 0 mm 3 m/s 739 mmHg 49%
    14:00 +14°C° 0 mm 3 m/s 738 mmHg 51%
    15:00 +15°C° 0 mm 2 m/s 738 mmHg 52%
    16:00 +13°C° 0 mm 2 m/s 737 mmHg 59%
    17:00 +10°C° 0 mm 2 m/s 737 mmHg 65%
    18:00 +8°C° 0 mm 2 m/s 737 mmHg 72%
    19:00 +7°C° 0 mm 2 m/s 737 mmHg 73%
    20:00 +7°C° 0 mm 2 m/s 737 mmHg 73%
    21:00 +7°C° 0 mm 1 m/s 737 mmHg 73%
    22:00 +6°C° 0 mm 2 m/s 737 mmHg 73%
    23:00 +6°C° 0 mm 2 m/s 736 mmHg 72%

    27 Février, Mercredi

    Heure Température Précipitation Vent Pression Humidité
    00:00 +5°C° 0 mm 2 m/s 736 mmHg 72%
    01:00 +5°C° 0 mm 2 m/s 736 mmHg 70%
    02:00 +5°C° 0 mm 2 m/s 736 mmHg 69%
    03:00 +5°C° 0 mm 2 m/s 736 mmHg 67%
    04:00 +6°C° 0 mm 1 m/s 735 mmHg 67%
    05:00 +5°C° 0 mm 1 m/s 735 mmHg 67%
    06:00 +5°C° 0 mm 1 m/s 735 mmHg 68%
    07:00 +7°C° 0 mm 1 m/s 735 mmHg 64%
    08:00 +9°C° 0 mm 1 m/s 735 mmHg 61%
    09:00 +10°C° 0 mm 1 m/s 735 mmHg 58%
    10:00 +12°C° 0 mm 1 m/s 735 mmHg 54%
    11:00 +14°C° 0 mm 1 m/s 735 mmHg 49%
    12:00 +16°C° 0 mm 1 m/s 735 mmHg 45%
    13:00 +16°C° 0 mm 1 m/s 734 mmHg 46%
    14:00 +16°C° 0 mm 1 m/s 734 mmHg 47%
    15:00 +16°C° 0 mm 1 m/s 734 mmHg 48%
    16:00 +14°C° 0 mm 1 m/s 733 mmHg 56%
    17:00 +10°C° 0 mm 0 m/s 733 mmHg 65%
    18:00 +8°C° 0 mm 0 m/s 733 mmHg 73%
    19:00 +8°C° 0 mm 0 m/s 733 mmHg 74%
    20:00 +7°C° 0 mm 0 m/s 732 mmHg 76%
    21:00 +6°C° 0 mm 0 m/s 732 mmHg 78%
    22:00 +6°C° 0 mm 0 m/s 732 mmHg 78%
    23:00 +6°C° 0 mm 0 m/s 732 mmHg 79%

    28 Février, Jeudi

    Heure Température Précipitation Vent Pression Humidité
    00:00 +5°C° 0 mm 0 m/s 732 mmHg 79%
    01:00 +5°C° 0 mm 0 m/s 732 mmHg 79%
    02:00 +5°C° 0 mm 0 m/s 732 mmHg 79%
    03:00 +5°C° 0 mm 0 m/s 731 mmHg 79%
    04:00 +4°C° 0 mm 0 m/s 731 mmHg 80%
    05:00 +4°C° 0 mm 0 m/s 731 mmHg 80%
    06:00 +4°C° 0 mm 0 m/s 731 mmHg 80%
    07:00 +7°C° 0 mm 1 m/s 732 mmHg 76%
    08:00 +8°C° 0 mm 1 m/s 732 mmHg 72%
    09:00 +10°C° 0 mm 1 m/s 732 mmHg 68%
    10:00 +12°C° 0 mm 1 m/s 732 mmHg 65%
    11:00 +13°C° 0 mm 2 m/s 732 mmHg 62%
    12:00 +14°C° 0 mm 2 m/s 732 mmHg 59%
    13:00 +15°C° 0 mm 2 m/s 732 mmHg 59%
    14:00 +14°C° 0 mm 3 m/s 731 mmHg 59%
    15:00 +14°C° 0 mm 3 m/s 731 mmHg 60%
    16:00 +13°C° 0 mm 2 m/s 731 mmHg 69%
    17:00 +10°C° 0 mm 2 m/s 731 mmHg 78%
    18:00 +9°C° 0 mm 1 m/s 730 mmHg 87%
    19:00 +9°C° 0 mm 1 m/s 730 mmHg 89%
    20:00 +8°C° 0 mm 1 m/s 731 mmHg 90%
    21:00 +7°C° 0 mm 1 m/s 731 mmHg 92%
    22:00 +7°C° 0 mm 1 m/s 730 mmHg 93%
    23:00 +7°C° 0 mm 1 m/s 730 mmHg 93%
    Voir plus